Overview Statistics Trail Chart Weather Telemetry Raw packets
 

This is the latest recevied weather packets stored in our database for station/object KB1RMA-4. If no packets are shown the sender has not sent any weather packets the latest 10 day(s).

<< 102 103 104 105 106 107 108 >>
Time Temp. Humidity Pressure Rain* Wind** Luminosity Snow
1787865530 28.89° C 49% 1015.9 hPa 0 mm - 223 W/m² -
1787865224 28.89° C 49% 1016.1 hPa 0 mm - 240 W/m² -
1787864921 28.89° C 49% 1015.5 hPa 0 mm - 239 W/m² -
1787864616 29.44° C 49% 1015.5 hPa 0 mm - 255 W/m² -
1787864310 29.44° C 48% 1015.8 hPa 0 mm - 250 W/m² -
1787864005 29.44° C 50% 1015.9 hPa 0 mm - 263 W/m² -
1787863703 29.44° C 50% 1015.8 hPa 0 mm - 302 W/m² -
1787863403 29.44° C 50% 1015.7 hPa 0 mm - 192 W/m² -
1787863098 29.44° C 50% 1016.1 hPa 0 mm - 314 W/m² -
1787862794 29.44° C 51% 1016.2 hPa 0 mm - 303 W/m² -
1787862493 29.44° C 50% 1016 hPa 0 mm - 378 W/m² -
1787862188 28.89° C 51% 1016.1 hPa 0 mm - 471 W/m² -
1787861883 28.89° C 53% 1016.2 hPa 0 mm - 223 W/m² -
1787861582 28.89° C 53% 1016.2 hPa 0 mm - 137 W/m² -
1787861276 29.44° C 52% 1016 hPa 0 mm - 146 W/m² -
1787860976 30° C 51% 1016.1 hPa 0 mm - 345 W/m² -
1787860676 29.44° C 51% 1016.3 hPa 0 mm - 453 W/m² -
1787860371 29.44° C 51% 1016.3 hPa 0 mm - 348 W/m² -
1787860071 29.44° C 52% 1016.2 hPa 0 mm - 250 W/m² -
1787859767 29.44° C 53% 1016.2 hPa 0 mm - 504 W/m² -
1787859467 28.89° C 55% 1016.1 hPa 0 mm - 550 W/m² -
1787859167 28.89° C 56% 1016.1 hPa 0 mm - 276 W/m² -
1787858863 28.89° C 56% 1016.5 hPa 0 mm - 406 W/m² -
1787858559 28.89° C 55% 1016.2 hPa 0 mm - 214 W/m² -
1787858258 28.89° C 56% 1016.4 hPa 0 mm - 295 W/m² -

* Rain latest hour (hover to see other rain measurements)
** Current wind speed in m/s (hover to see current wind gust speed)